• In Hungary
  • List of Countries
  • For 7 days
  • Water Temperature
  • Satellite Maps
  • Weather Map
  • News
  • Weather Widgets
  • user-avatar
    Login

    Hourly Weather Jewłach

    Today, 26 September, Tuesday

    Time Temperature Precipitation Wind Pressure Humidity
    00:00 +23°C° 0 mm 4 mps 764 mmHg 54%
    01:00 +23°C° 0 mm 4 mps 764 mmHg 56%
    02:00 +22°C° 0 mm 3 mps 764 mmHg 58%
    03:00 +21°C° 0 mm 2 mps 764 mmHg 60%
    04:00 +21°C° 0 mm 2 mps 764 mmHg 61%
    05:00 +20°C° 0 mm 2 mps 764 mmHg 63%
    06:00 +21°C° 0 mm 1 mps 764 mmHg 64%
    07:00 +21°C° 0 mm 2 mps 763 mmHg 59%
    08:00 +24°C° 0 mm 3 mps 763 mmHg 55%
    09:00 +25°C° 0 mm 3 mps 763 mmHg 50%
    10:00 +26°C° 0 mm 3 mps 763 mmHg 48%
    11:00 +27°C° 0 mm 3 mps 763 mmHg 46%
    12:00 +28°C° 0 mm 4 mps 763 mmHg 44%
    13:00 +28°C° 0 mm 4 mps 762 mmHg 44%
    14:00 +28°C° 0 mm 5 mps 762 mmHg 45%
    15:00 +28°C° 0 mm 5 mps 762 mmHg 46%
    16:00 +27°C° 0 mm 5 mps 762 mmHg 49%
    17:00 +26°C° 0 mm 5 mps 763 mmHg 53%
    18:00 +25°C° 0 mm 5 mps 763 mmHg 56%
    19:00 +23°C° 0 mm 6 mps 763 mmHg 58%
    20:00 +22°C° 0 mm 6 mps 763 mmHg 60%
    21:00 +22°C° 0 mm 6 mps 763 mmHg 62%
    22:00 +21°C° 0 mm 5 mps 763 mmHg 63%
    23:00 +21°C° 0 mm 5 mps 763 mmHg 64%

    Tomorrow, 27 September, Wednesday

    Time Temperature Precipitation Wind Pressure Humidity
    00:00 +20°C° 0 mm 4 mps 763 mmHg 65%
    01:00 +20°C° 0 mm 4 mps 763 mmHg 65%
    02:00 +20°C° 0 mm 3 mps 763 mmHg 65%
    03:00 +20°C° 0 mm 3 mps 763 mmHg 65%
    04:00 +19°C° 0 mm 3 mps 763 mmHg 66%
    05:00 +19°C° 0 mm 2 mps 763 mmHg 66%
    06:00 +19°C° 0 mm 2 mps 763 mmHg 67%
    07:00 +19°C° 0 mm 2 mps 763 mmHg 66%
    08:00 +20°C° 0 mm 2 mps 763 mmHg 65%
    09:00 +20°C° 0 mm 3 mps 763 mmHg 64%
    10:00 +21°C° 0.1 mm 3 mps 763 mmHg 63%
    11:00 +21°C° 0.1 mm 3 mps 762 mmHg 62%
    12:00 +22°C° 0.1 mm 3 mps 762 mmHg 61%
    13:00 +22°C° 0 mm 3 mps 762 mmHg 61%
    14:00 +22°C° 0 mm 4 mps 762 mmHg 61%
    15:00 +22°C° 0 mm 4 mps 762 mmHg 60%
    16:00 +21°C° 0 mm 4 mps 762 mmHg 63%
    17:00 +21°C° 0 mm 4 mps 762 mmHg 66%
    18:00 +20°C° 0 mm 3 mps 762 mmHg 69%
    19:00 +19°C° 0.5 mm 3 mps 763 mmHg 71%
    20:00 +19°C° 0.5 mm 3 mps 763 mmHg 72%
    21:00 +19°C° 0.5 mm 3 mps 763 mmHg 73%
    22:00 +19°C° 0.4 mm 3 mps 763 mmHg 74%
    23:00 +18°C° 0.4 mm 4 mps 763 mmHg 76%

    Day after tomorrow, 28 September, Thursday

    Time Temperature Precipitation Wind Pressure Humidity
    00:00 +18°C° 0.4 mm 4 mps 763 mmHg 77%
    01:00 +18°C° 0.4 mm 4 mps 763 mmHg 77%
    02:00 +18°C° 0.4 mm 4 mps 763 mmHg 78%
    03:00 +17°C° 0.4 mm 4 mps 763 mmHg 79%
    04:00 +17°C° 0.5 mm 4 mps 763 mmHg 78%
    05:00 +17°C° 0.5 mm 4 mps 763 mmHg 77%
    06:00 +16°C° 0.5 mm 5 mps 763 mmHg 76%
    07:00 +16°C° 0.9 mm 5 mps 764 mmHg 77%
    08:00 +16°C° 0.9 mm 5 mps 764 mmHg 78%
    09:00 +16°C° 0.9 mm 5 mps 764 mmHg 78%
    10:00 +17°C° 0.9 mm 4 mps 765 mmHg 79%
    11:00 +17°C° 0.9 mm 4 mps 765 mmHg 79%
    12:00 +15°C° 0.9 mm 4 mps 765 mmHg 79%
    13:00 +16°C° 0.8 mm 3 mps 765 mmHg 79%
    14:00 +16°C° 0.8 mm 3 mps 765 mmHg 79%
    15:00 +16°C° 0.8 mm 3 mps 765 mmHg 78%
    16:00 +16°C° 0.5 mm 3 mps 766 mmHg 78%
    17:00 +16°C° 0.5 mm 3 mps 766 mmHg 79%
    18:00 +16°C° 0.5 mm 3 mps 766 mmHg 79%
    19:00 +14°C° 0.4 mm 3 mps 767 mmHg 79%
    20:00 +14°C° 0.4 mm 3 mps 768 mmHg 80%
    21:00 +14°C° 0.4 mm 3 mps 768 mmHg 81%
    22:00 +14°C° 0.4 mm 3 mps 768 mmHg 81%
    23:00 +14°C° 0.4 mm 3 mps 768 mmHg 82%

    29 September, Friday

    Time Temperature Precipitation Wind Pressure Humidity
    00:00 +14°C° 0.4 mm 3 mps 768 mmHg 83%
    01:00 +14°C° 0.4 mm 3 mps 768 mmHg 84%
    02:00 +14°C° 0.4 mm 3 mps 768 mmHg 84%
    03:00 +15°C° 0.4 mm 2 mps 768 mmHg 85%
    04:00 +15°C° 0.2 mm 2 mps 768 mmHg 85%
    05:00 +15°C° 0.2 mm 2 mps 768 mmHg 86%
    06:00 +14°C° 0.2 mm 2 mps 768 mmHg 86%
    07:00 +15°C° 0.2 mm 2 mps 768 mmHg 85%
    08:00 +15°C° 0.2 mm 2 mps 769 mmHg 83%
    09:00 +14°C° 0.2 mm 3 mps 769 mmHg 82%
    10:00 +14°C° 0.2 mm 3 mps 768 mmHg 80%
    11:00 +14°C° 0.2 mm 3 mps 768 mmHg 79%
    12:00 +16°C° 0.2 mm 3 mps 768 mmHg 77%
    13:00 +16°C° 0.1 mm 3 mps 768 mmHg 77%
    14:00 +16°C° 0.1 mm 2 mps 767 mmHg 76%
    15:00 +16°C° 0.1 mm 2 mps 767 mmHg 76%
    16:00 +15°C° 0 mm 2 mps 767 mmHg 77%
    17:00 +15°C° 0 mm 2 mps 767 mmHg 77%
    18:00 +15°C° 0 mm 2 mps 767 mmHg 78%
    19:00 +15°C° 0 mm 1 mps 767 mmHg 77%
    20:00 +15°C° 0 mm 1 mps 767 mmHg 77%
    21:00 +15°C° 0 mm 1 mps 767 mmHg 76%
    22:00 +15°C° 0 mm 1 mps 767 mmHg 76%
    23:00 +15°C° 0 mm 1 mps 766 mmHg 75%

    30 September, Saturday

    Time Temperature Precipitation Wind Pressure Humidity
    00:00 +15°C° 0 mm 1 mps 766 mmHg 75%
    01:00 +15°C° 0 mm 1 mps 765 mmHg 75%
    02:00 +15°C° 0 mm 1 mps 765 mmHg 75%
    03:00 +15°C° 0 mm 1 mps 764 mmHg 75%
    04:00 +15°C° 0 mm 1 mps 764 mmHg 76%
    05:00 +15°C° 0 mm 1 mps 764 mmHg 77%
    06:00 +14°C° 0 mm 1 mps 764 mmHg 78%
    07:00 +16°C° 0 mm 1 mps 763 mmHg 73%
    08:00 +17°C° 0 mm 2 mps 763 mmHg 68%
    09:00 +18°C° 0 mm 2 mps 763 mmHg 63%
    10:00 +19°C° 0 mm 2 mps 762 mmHg 59%
    11:00 +20°C° 0 mm 2 mps 761 mmHg 55%
    12:00 +21°C° 0 mm 2 mps 761 mmHg 51%
    13:00 +23°C° 0 mm 2 mps 760 mmHg 50%
    14:00 +23°C° 0 mm 2 mps 760 mmHg 50%
    15:00 +23°C° 0 mm 2 mps 759 mmHg 49%
    16:00 +22°C° 0 mm 1 mps 759 mmHg 52%
    17:00 +22°C° 0 mm 1 mps 760 mmHg 55%
    18:00 +21°C° 0 mm 1 mps 760 mmHg 58%
    19:00 +21°C° 0 mm 1 mps 760 mmHg 58%
    20:00 +20°C° 0 mm 1 mps 760 mmHg 59%
    21:00 +19°C° 0 mm 2 mps 760 mmHg 59%
    22:00 +19°C° 0 mm 2 mps 760 mmHg 59%
    23:00 +19°C° 0 mm 2 mps 759 mmHg 59%

    1 October, Sunday

    Time Temperature Precipitation Wind Pressure Humidity
    00:00 +19°C° 0 mm 2 mps 759 mmHg 59%
    01:00 +18°C° 0 mm 3 mps 759 mmHg 60%
    02:00 +18°C° 0 mm 3 mps 759 mmHg 60%
    03:00 +18°C° 0 mm 3 mps 759 mmHg 61%
    04:00 +18°C° 0 mm 3 mps 759 mmHg 62%
    05:00 +18°C° 0 mm 4 mps 759 mmHg 63%
    06:00 +17°C° 0 mm 4 mps 759 mmHg 64%
    07:00 +19°C° 0 mm 4 mps 759 mmHg 58%
    08:00 +21°C° 0 mm 4 mps 759 mmHg 52%
    09:00 +23°C° 0 mm 5 mps 759 mmHg 46%
    10:00 +25°C° 0 mm 4 mps 759 mmHg 42%
    11:00 +26°C° 0 mm 4 mps 759 mmHg 38%
    12:00 +27°C° 0 mm 4 mps 759 mmHg 34%
    13:00 +28°C° 0 mm 3 mps 759 mmHg 33%
    14:00 +28°C° 0 mm 3 mps 758 mmHg 33%
    15:00 +28°C° 0 mm 2 mps 758 mmHg 32%
    16:00 +27°C° 0 mm 2 mps 759 mmHg 35%
    17:00 +26°C° 0 mm 1 mps 759 mmHg 38%
    18:00 +25°C° 0 mm 1 mps 759 mmHg 41%
    19:00 +24°C° 0 mm 1 mps 760 mmHg 43%
    20:00 +23°C° 0 mm 1 mps 760 mmHg 45%
    21:00 +23°C° 0 mm 2 mps 760 mmHg 47%
    22:00 +21°C° 0 mm 2 mps 761 mmHg 52%
    23:00 +21°C° 0 mm 2 mps 761 mmHg 58%
    Show more